logo dgac
Jueves 13 de Diciembre del 2018
Buscar por aerodromo o helipuerto
Ingrese nombre de aeródromo, localidad o designador OACI:

Aeródromo: Cochrane (PUB) (SCHR)

Ubicación: Cochrane, XI Región, Chile (47º 14' 37'' S, 72º 35' 16'' W) Ver ubicación en el mapa

Pistas

Orientación Dimensión Pendiente Superficie Resistencia APCH THR RWY PAPI
07/25 1050 x 23 2,00 ASPH /CONCRETO 23.000 Kg No No No No
Horas de operación HJ
Elevación 196 m / 643 ft
Otra Información Adm : D.G.A.C.
Uso : PUB
Ubicado : 3 km NW Cochrane
TEL (FAX) 67 2522121

Al FCCV restar 30 minutos

Otra información ver AIP-Chile Volumen I AD 3.9-3.10-C
CCCM/FCCV Descargar
andera de Chile
Mapa de Cochrane (PUB) (SCHR)

Último METAR

METAR SCHR 132000Z 25008KT 9999 SCT040 19/02 Q1002

Último TAF

TAF SCHR 131037Z 1312/1400 35005KT 9999 SCT035 TN08/1312Z TX17/1318Z BECMG 1313/1315 22008KT 9000 -SHRA SCT030 BKN035 BECMG 1321/1323 24005KT

Últimas fotos cámaras

Imagen aerodromo Cochrane (PUB) (SCHR) Oeste tomada el 13-12-2018 11:03:30 Imagen aerodromo Cochrane (PUB) (SCHR) Este tomada el 13-12-2018 11:03:28

Último NOTAM

No hay notams registrados para este aeródromo

LLegadas a Cochrane (PUB) (SCHR)

En vuelo

Vuelo Procedencia Hora Despegue Local Hora Arribo Local

Salidas de Cochrane (PUB) (SCHR)

En vuelo

Vuelo Hacia Hora Despegue Local Hora Arribo Local